| time (UTC) | temp F | wind direction | speed MPH | gust MPH | rain 1hr in | rain 24hr in | rain mn in | humidity % | barometer mb |
| 20260904001023 | 73 | 138 | 1.0 | 4.0 | 0.00 | 0.04 | 0.04 | 83 | 1014.2 |
| 20260904000520 | 73 | 159 | 2.0 | 4.0 | 0.00 | 0.04 | 0.04 | 83 | 1014.2 |
| 20260904000108 | 74 | 163 | 1.0 | 4.0 | 0.00 | 0.04 | 0.04 | 82 | 1014.2 |
| 20260903235517 | 74 | 142 | 2.0 | 5.0 | 0.00 | 0.04 | 0.04 | 82 | 1014.2 |
| 20260903235018 | 74 | 150 | 2.0 | 5.0 | 0.00 | 0.04 | 0.04 | 82 | 1014.3 |
| 20260903234540 | 74 | 171 | 1.0 | 5.0 | 0.00 | 0.04 | 0.04 | 82 | 1014.3 |
| 20260903234021 | 74 | 109 | 2.0 | 8.0 | 0.00 | 0.04 | 0.04 | 81 | 1014.1 |
| 20260903233524 | 74 | 161 | 3.0 | 8.0 | 0.00 | 0.04 | 0.04 | 81 | 1014.0 |
| 20260903233100 | 75 | 123 | 2.0 | 6.0 | 0.00 | 0.04 | 0.04 | 80 | 1014.0 |
| 20260903232519 | 75 | 148 | 2.0 | 6.0 | 0.00 | 0.04 | 0.04 | 82 | 1013.9 |
| 20260903232020 | 75 | 152 | 2.0 | 6.0 | 0.00 | 0.04 | 0.04 | 81 | 1013.9 |
| 20260903231547 | 75 | 145 | 2.0 | 5.0 | 0.00 | 0.04 | 0.04 | 81 | 1014.0 |
| 20260903231020 | 75 | 163 | 2.0 | 4.0 | 0.00 | 0.04 | 0.04 | 81 | 1014.1 |
| 20260903230522 | 75 | 130 | 1.0 | 6.0 | 0.00 | 0.04 | 0.04 | 81 | 1014.2 |
| 20260903225522 | 76 | 155 | 3.0 | 5.0 | 0.00 | 0.04 | 0.04 | 79 | 1014.3 |
| 20260903225019 | 76 | 127 | 2.0 | 5.0 | 0.00 | 0.04 | 0.04 | 80 | 1014.1 |
| 20260903224543 | 75 | 157 | 2.0 | 4.0 | 0.00 | 0.04 | 0.04 | 81 | 1014.2 |
| 20260903224022 | 75 | 169 | 2.0 | 3.0 | 0.00 | 0.04 | 0.04 | 81 | 1014.4 |
| 20260903223530 | 75 | 144 | 1.0 | 2.0 | 0.00 | 0.04 | 0.04 | 81 | 1014.2 |
| 20260903223108 | 76 | 151 | 1.0 | 2.0 | 0.00 | 0.04 | 0.04 | 81 | 1014.1 |
| 20260903222516 | 76 | 76 | 1.0 | 3.0 | 0.00 | 0.04 | 0.04 | 81 | 1014.2 |
| 20260903222023 | 75 | 149 | 1.0 | 4.0 | 0.00 | 0.04 | 0.04 | 81 | 1014.3 |
| 20260903221536 | 76 | 155 | 0.0 | 7.0 | 0.00 | 0.04 | 0.04 | 81 | 1014.2 |
| 20260903221018 | 75 | 159 | 2.0 | 7.0 | 0.00 | 0.04 | 0.04 | 82 | 1014.1 |
| 20260903220517 | 75 | 164 | 3.0 | 6.0 | 0.00 | 0.04 | 0.04 | 82 | 1014.0 |
| 20260903220040 | 76 | 129 | 0.0 | 5.0 | 0.00 | 0.04 | 0.04 | 82 | 1014.0 |
| 20260903215521 | 75 | 164 | 3.0 | 5.0 | 0.00 | 0.04 | 0.04 | 83 | 1014.0 |
| 20260903215021 | 75 | 151 | 2.0 | 4.0 | 0.00 | 0.04 | 0.04 | 83 | 1014.0 |
| 20260903214546 | 75 | 112 | 2.0 | 3.0 | 0.00 | 0.04 | 0.04 | 84 | 1013.9 |
| 20260903214021 | 75 | 134 | 1.0 | 3.0 | 0.00 | 0.04 | 0.04 | 84 | 1014.1 |
| 20260903213520 | 75 | 69 | 1.0 | 3.0 | 0.00 | 0.04 | 0.04 | 84 | 1014.0 |
| 20260903213048 | 75 | 107 | 1.0 | 3.0 | 0.00 | 0.04 | 0.04 | 83 | 1014.0 |
| 20260903212517 | 75 | 69 | 1.0 | 6.0 | 0.00 | 0.04 | 0.04 | 83 | 1014.0 |
| 20260903212019 | 75 | 155 | 2.0 | 6.0 | 0.00 | 0.04 | 0.04 | 83 | 1014.1 |
| 20260903211542 | 75 | 147 | 3.0 | 6.0 | 0.00 | 0.04 | 0.04 | 83 | 1014.0 |
| 20260903211018 | 75 | 163 | 2.0 | 7.0 | 0.00 | 0.04 | 0.04 | 82 | 1014.0 |
| 20260903210516 | 76 | 134 | 2.0 | 10.0 | 0.00 | 0.04 | 0.04 | 83 | 1013.9 |
| 20260903210059 | 76 | 90 | 3.0 | 10.0 | 0.00 | 0.04 | 0.04 | 82 | 1014.2 |
| 20260903205517 | 76 | 148 | 5.0 | 11.0 | 0.00 | 0.04 | 0.04 | 81 | 1014.2 |
| 20260903205020 | 77 | 143 | 5.0 | 11.0 | 0.00 | 0.04 | 0.04 | 81 | 1013.9 |
| 20260903204544 | 78 | 74 | 1.0 | 5.0 | 0.00 | 0.04 | 0.04 | 81 | 1013.9 |
| 20260903204018 | 78 | 127 | 2.0 | 5.0 | 0.00 | 0.04 | 0.04 | 80 | 1014.0 |
| 20260903203520 | 78 | 130 | 1.0 | 3.0 | 0.00 | 0.04 | 0.04 | 79 | 1014.0 |
| 20260903203038 | 79 | 150 | 2.0 | 3.0 | 0.00 | 0.04 | 0.04 | 78 | 1014.0 |
| 20260903202523 | 79 | 128 | 1.0 | 2.0 | 0.00 | 0.04 | 0.04 | 77 | 1014.1 |
| 20260903202017 | 80 | 132 | 1.0 | 2.0 | 0.00 | 0.04 | 0.04 | 74 | 1014.2 |
| 20260903201538 | 80 | 66 | 0.0 | 2.0 | 0.00 | 0.04 | 0.04 | 74 | 1014.5 |
| 20260903201016 | 81 | 30 | 0.0 | 2.0 | 0.00 | 0.04 | 0.04 | 74 | 1014.6 |
| 20260903200516 | 80 | 92 | 0.0 | 3.0 | 0.00 | 0.04 | 0.04 | 74 | 1014.4 |
| 20260903200039 | 81 | 74 | 1.0 | 3.0 | 0.00 | 0.04 | 0.04 | 74 | 1014.4 |
| 20260903195519 | 82 | 10 | 0.0 | 6.0 | 0.00 | 0.04 | 0.04 | 73 | 1014.5 |
| 20260903195021 | 82 | 47 | 2.0 | 6.0 | 0.00 | 0.04 | 0.04 | 72 | 1014.5 |
| 20260903194546 | 81 | 55 | 3.0 | 6.0 | 0.00 | 0.04 | 0.04 | 73 | 1014.3 |
| 20260903194021 | 81 | 46 | 2.0 | 5.0 | 0.00 | 0.04 | 0.04 | 74 | 1014.4 |
| 20260903193522 | 82 | 109 | 2.0 | 5.0 | 0.00 | 0.04 | 0.04 | 75 | 1014.6 |
| 20260903193041 | 82 | 327 | 1.0 | 3.0 | 0.00 | 0.04 | 0.04 | 75 | 1014.8 |
| 20260903192517 | 81 | 312 | 0.0 | 4.0 | 0.00 | 0.04 | 0.04 | 77 | 1014.7 |
| 20260903192018 | 79 | 44 | 2.0 | 4.0 | 0.00 | 0.04 | 0.04 | 77 | 1014.5 |
| 20260903191534 | 80 | 98 | 0.0 | 4.0 | 0.00 | 0.04 | 0.04 | 79 | 1014.4 |
| 20260903191018 | 79 | 51 | 2.0 | 4.0 | 0.00 | 0.04 | 0.04 | 77 | 1014.4 |
| 20260903190518 | 80 | 34 | 2.0 | 4.0 | 0.00 | 0.04 | 0.04 | 77 | 1014.5 |
| 20260903190040 | 80 | 36 | 1.0 | 5.0 | 0.00 | 0.04 | 0.04 | 75 | 1014.4 |
| 20260903185519 | 80 | 352 | 1.0 | 6.0 | 0.00 | 0.04 | 0.04 | 76 | 1014.4 |
| 20260903185023 | 80 | 12 | 1.0 | 6.0 | 0.00 | 0.04 | 0.04 | 75 | 1014.4 |
| 20260903184549 | 79 | 352 | 4.0 | 6.0 | 0.00 | 0.04 | 0.04 | 78 | 1014.4 |
| 20260903184025 | 79 | 328 | 3.0 | 6.0 | 0.00 | 0.04 | 0.04 | 79 | 1014.4 |
| 20260903183519 | 79 | 352 | 2.0 | 5.0 | 0.00 | 0.04 | 0.04 | 79 | 1014.5 |
| 20260903183040 | 78 | 52 | 2.0 | 4.0 | 0.00 | 0.04 | 0.04 | 81 | 1014.6 |
| 20260903182521 | 78 | 35 | 2.0 | 4.0 | 0.00 | 0.04 | 0.04 | 82 | 1014.7 |
| 20260903182018 | 78 | 54 | 1.0 | 7.0 | 0.00 | 0.04 | 0.04 | 83 | 1014.7 |
| 20260903181539 | 78 | 9 | 2.0 | 7.0 | 0.00 | 0.04 | 0.04 | 81 | 1014.8 |
| 20260903181024 | 78 | 347 | 3.0 | 4.0 | 0.00 | 0.04 | 0.04 | 82 | 1015.1 |
| 20260903180517 | 78 | 24 | 2.0 | 11.0 | 0.00 | 0.04 | 0.04 | 80 | 1014.7 |
| 20260903180042 | 78 | 15 | 3.0 | 13.0 | 0.00 | 0.04 | 0.04 | 78 | 1014.6 |
| 20260903175520 | 78 | 277 | 5.0 | 13.0 | 0.00 | 0.04 | 0.04 | 78 | 1014.9 |
| 20260903175019 | 78 | 298 | 7.0 | 14.0 | 0.00 | 0.04 | 0.04 | 80 | 1014.9 |
| 20260903174540 | 77 | 294 | 8.0 | 14.0 | 0.00 | 0.04 | 0.04 | 82 | 1015.0 |
| 20260903174016 | 77 | 308 | 9.0 | 14.0 | 0.00 | 0.04 | 0.04 | 84 | 1015.1 |
| 20260903173522 | 76 | 311 | 6.0 | 12.0 | 0.00 | 0.04 | 0.04 | 85 | 1015.1 |
| 20260903173039 | 75 | 259 | 6.0 | 14.0 | 0.00 | 0.04 | 0.04 | 86 | 1014.8 |
| 20260903172519 | 73 | 233 | 5.0 | 14.0 | 0.00 | 0.04 | 0.04 | 89 | 1014.8 |
| 20260903172021 | 73 | 219 | 7.0 | 14.0 | 0.00 | 0.04 | 0.04 | 89 | 1014.6 |
| 20260903171539 | 72 | 248 | 6.0 | 11.0 | 0.00 | 0.04 | 0.04 | 90 | 1014.6 |
| 20260903171016 | 72 | 163 | 4.0 | 8.0 | 0.00 | 0.04 | 0.04 | 91 | 1014.5 |
| 20260903170519 | 72 | 163 | 4.0 | 9.0 | 0.00 | 0.04 | 0.04 | 91 | 1014.5 |
| 20260903170036 | 72 | 211 | 4.0 | 9.0 | 0.01 | 0.04 | 0.04 | 91 | 1014.6 |
| 20260903165515 | 72 | 130 | 3.0 | 7.0 | 0.01 | 0.04 | 0.04 | 92 | 1014.7 |
| 20260903165015 | 71 | 202 | 3.0 | 7.0 | 0.01 | 0.04 | 0.04 | 92 | 1014.6 |
| 20260903164540 | 71 | 221 | 2.0 | 7.0 | 0.01 | 0.04 | 0.04 | 92 | 1014.5 |
| 20260903164019 | 71 | 170 | 3.0 | 5.0 | 0.01 | 0.04 | 0.04 | 92 | 1014.5 |
| 20260903163518 | 71 | 177 | 2.0 | 5.0 | 0.01 | 0.04 | 0.04 | 92 | 1014.6 |
| 20260903163042 | 71 | 195 | 2.0 | 5.0 | 0.01 | 0.04 | 0.04 | 92 | 1014.7 |
| 20260903162524 | 71 | 216 | 2.0 | 7.0 | 0.01 | 0.04 | 0.04 | 92 | 1014.8 |
| 20260903162020 | 70 | 239 | 2.0 | 7.0 | 0.01 | 0.04 | 0.04 | 92 | 1015.1 |
| 20260903161537 | 70 | 281 | 2.0 | 8.0 | 0.01 | 0.04 | 0.04 | 92 | 1015.2 |
| 20260903161019 | 70 | 257 | 3.0 | 9.0 | 0.01 | 0.04 | 0.04 | 91 | 1015.5 |
| 20260903160520 | 70 | 207 | 4.0 | 9.0 | 0.01 | 0.04 | 0.04 | 91 | 1015.9 |
| 20260903160045 | 70 | 242 | 4.0 | 8.0 | 0.00 | 0.03 | 0.03 | 90 | 1015.9 |
| 20260903155522 | 70 | 288 | 3.0 | 12.0 | 0.00 | 0.04 | 0.03 | 89 | 1015.9 |
| 20260903155021 | 70 | 259 | 4.0 | 12.0 | 0.00 | 0.04 | 0.03 | 88 | 1016.1 |
| 20260903154549 | 70 | 278 | 6.0 | 12.0 | 0.01 | 0.04 | 0.03 | 88 | 1016.4 |
| 20260903154024 | 70 | 255 | 6.0 | 11.0 | 0.01 | 0.04 | 0.03 | 88 | 1016.4 |
| 20260903153520 | 70 | 245 | 5.0 | 11.0 | 0.01 | 0.04 | 0.03 | 88 | 1016.4 |
| 20260903153039 | 70 | 250 | 5.0 | 11.0 | 0.01 | 0.04 | 0.03 | 88 | 1016.6 |
| 20260903152521 | 70 | 284 | 4.0 | 8.0 | 0.02 | 0.04 | 0.03 | 88 | 1016.5 |
| 20260903152027 | 70 | 260 | 4.0 | 8.0 | 0.02 | 0.04 | 0.03 | 88 | 1016.5 |
| 20260903151539 | 70 | 221 | 4.0 | 7.0 | 0.02 | 0.04 | 0.03 | 88 | 1016.3 |
| 20260903151019 | 70 | 273 | 4.0 | 7.0 | 0.02 | 0.04 | 0.03 | 87 | 1016.1 |
| 20260903150521 | 70 | 255 | 3.0 | 7.0 | 0.02 | 0.04 | 0.03 | 88 | 1015.9 |
| 20260903150056 | 70 | 179 | 4.0 | 7.0 | 0.02 | 0.04 | 0.03 | 88 | 1015.5 |
| 20260903145520 | 70 | 187 | 2.0 | 6.0 | 0.03 | 0.04 | 0.03 | 90 | 1015.4 |
| 20260903145021 | 70 | 132 | 2.0 | 6.0 | 0.03 | 0.04 | 0.03 | 90 | 1015.5 |
| 20260903144541 | 70 | 173 | 1.0 | 2.0 | 0.02 | 0.03 | 0.02 | 89 | 1015.7 |
| 20260903144019 | 70 | 176 | 1.0 | 3.0 | 0.02 | 0.03 | 0.02 | 89 | 1015.7 |
| 20260903143526 | 70 | 237 | 2.0 | 4.0 | 0.02 | 0.03 | 0.02 | 88 | 1015.7 |
| 20260903143042 | 70 | 224 | 1.0 | 7.0 | 0.02 | 0.03 | 0.02 | 88 | 1015.6 |
| 20260903142521 | 70 | 254 | 3.0 | 7.0 | 0.01 | 0.02 | 0.01 | 87 | 1015.5 |
| 20260903142021 | 70 | 222 | 4.0 | 9.0 | 0.01 | 0.02 | 0.01 | 87 | 1015.5 |
| 20260903141538 | 70 | 210 | 2.0 | 11.0 | 0.01 | 0.02 | 0.01 | 88 | 1015.6 |
| 20260903141022 | 70 | 202 | 5.0 | 12.0 | 0.01 | 0.02 | 0.01 | 87 | 1015.6 |
| 20260903140519 | 70 | 192 | 6.0 | 12.0 | 0.01 | 0.02 | 0.01 | 88 | 1015.4 |
| 20260903140042 | 69 | 245 | 3.0 | 6.0 | 0.01 | 0.02 | 0.01 | 89 | 1015.4 |
| 20260903135520 | 69 | 173 | 3.0 | 6.0 | 0.00 | 0.01 | 0.00 | 91 | 1015.4 |
| 20260903135023 | 70 | 232 | 4.0 | 6.0 | 0.00 | 0.01 | 0.00 | 91 | 1015.3 |
| 20260903134545 | 69 | 263 | 3.0 | 9.0 | 0.00 | 0.01 | 0.00 | 93 | 1015.1 |
| 20260903134019 | 69 | 280 | 2.0 | 10.0 | 0.00 | 0.01 | 0.00 | 94 | 1014.9 |
| 20260903133519 | 69 | 206 | 4.0 | 10.0 | 0.00 | 0.01 | 0.00 | 94 | 1014.7 |
| 20260903133044 | 69 | 246 | 2.0 | 8.0 | 0.00 | 0.01 | 0.00 | 95 | 1014.7 |
| 20260903132520 | 70 | 211 | 4.0 | 9.0 | 0.00 | 0.01 | 0.00 | 96 | 1014.8 |
| 20260903132019 | 70 | 240 | 4.0 | 9.0 | 0.00 | 0.01 | 0.00 | 96 | 1014.6 |
| 20260903131549 | 70 | 173 | 4.0 | 9.0 | 0.00 | 0.01 | 0.00 | 96 | 1015.0 |
| 20260903131022 | 70 | 252 | 3.0 | 6.0 | 0.00 | 0.01 | 0.00 | 96 | 1014.9 |
| 20260903130524 | 69 | 284 | 1.0 | 4.0 | 0.00 | 0.01 | 0.00 | 96 | 1014.5 |
| 20260903130044 | 69 | 173 | 1.0 | 4.0 | 0.00 | 0.01 | 0.00 | 96 | 1014.6 |
| 20260903125521 | 69 | 220 | 1.0 | 5.0 | 0.00 | 0.01 | 0.00 | 96 | 1014.6 |
| 20260903125021 | 69 | 319 | 1.0 | 5.0 | 0.00 | 0.01 | 0.00 | 96 | 1014.1 |
| 20260903124542 | 69 | 313 | 2.0 | 5.0 | 0.00 | 0.01 | 0.00 | 96 | 1014.1 |
| 20260903124018 | 70 | 292 | 3.0 | 4.0 | 0.00 | 0.01 | 0.00 | 96 | 1014.2 |
| 20260903123518 | 70 | 49 | 0.0 | 2.0 | 0.00 | 0.01 | 0.00 | 96 | 1013.9 |
| 20260903123049 | 70 | 0 | 0.0 | 2.0 | 0.00 | 0.01 | 0.00 | 96 | 1014.0 |
| 20260903122526 | 70 | 67 | 0.0 | 2.0 | 0.00 | 0.01 | 0.00 | 96 | 1014.0 |
| 20260903122019 | 70 | 69 | 0.0 | 2.0 | 0.00 | 0.01 | 0.00 | 96 | 1013.8 |
| 20260903121555 | 70 | 0 | 0.0 | 0.0 | 0.00 | 0.01 | 0.00 | 96 | 1013.9 |
| 20260903121021 | 70 | 0 | 0.0 | 0.0 | 0.00 | 0.01 | 0.00 | 96 | 1013.8 |
| 20260903120521 | 70 | 0 | 0.0 | 2.0 | 0.00 | 0.01 | 0.00 | 96 | 1013.9 |
| 20260903120041 | 70 | 0 | 0.0 | 2.0 | 0.00 | 0.01 | 0.00 | 96 | 1013.9 |
| 20260903115520 | 69 | 0 | 0.0 | 2.0 | 0.00 | 0.01 | 0.00 | 96 | 1014.0 |
| 20260903115021 | 69 | 93 | 0.0 | 2.0 | 0.00 | 0.01 | 0.00 | 96 | 1014.0 |
| 20260903114543 | 69 | 55 | 1.0 | 2.0 | 0.00 | 0.01 | 0.00 | 96 | 1014.0 |
| 20260903114019 | 69 | 0 | 0.0 | 2.0 | 0.00 | 0.01 | 0.00 | 96 | 1013.9 |
| 20260903113519 | 69 | 138 | 0.0 | 1.0 | 0.00 | 0.01 | 0.00 | 96 | 1013.9 |
| 20260903113049 | 68 | 0 | 0.0 | 0.0 | 0.00 | 0.01 | 0.00 | 96 | 1013.9 |
| 20260903112525 | 69 | 0 | 0.0 | 2.0 | 0.00 | 0.01 | 0.00 | 96 | 1013.8 |
| 20260903112022 | 69 | 0 | 0.0 | 2.0 | 0.00 | 0.01 | 0.00 | 96 | 1014.0 |
| 20260903111544 | 69 | 138 | 0.0 | 2.0 | 0.00 | 0.01 | 0.00 | 96 | 1014.0 |
| 20260903111020 | 69 | 0 | 0.0 | 2.0 | 0.00 | 0.01 | 0.00 | 96 | 1014.0 |
| 20260903110520 | 69 | 138 | 0.0 | 2.0 | 0.00 | 0.01 | 0.00 | 96 | 1013.9 |
| 20260903110043 | 69 | 0 | 0.0 | 0.0 | 0.00 | 0.01 | 0.00 | 96 | 1014.0 |
| 20260903105523 | 69 | 0 | 0.0 | 0.0 | 0.00 | 0.01 | 0.00 | 96 | 1013.9 |
| 20260903105019 | 69 | 0 | 0.0 | 2.0 | 0.00 | 0.01 | 0.00 | 96 | 1013.9 |
| 20260903104551 | 69 | 0 | 0.0 | 2.0 | 0.00 | 0.01 | 0.00 | 96 | 1013.8 |
| 20260903104019 | 69 | 0 | 0.0 | 2.0 | 0.00 | 0.01 | 0.00 | 96 | 1013.9 |
| 20260903103519 | 69 | 0 | 0.0 | 2.0 | 0.00 | 0.01 | 0.00 | 96 | 1013.8 |
| 20260903103047 | 69 | 0 | 0.0 | 2.0 | 0.00 | 0.01 | 0.00 | 96 | 1013.8 |
| 20260903102519 | 68 | 0 | 0.0 | 2.0 | 0.00 | 0.01 | 0.00 | 95 | 1013.8 |
| 20260903102020 | 69 | 138 | 0.0 | 2.0 | 0.00 | 0.01 | 0.00 | 95 | 1014.0 |
| 20260903101549 | 69 | 138 | 0.0 | 2.0 | 0.00 | 0.01 | 0.00 | 95 | 1014.0 |
| 20260903101019 | 69 | 138 | 0.0 | 2.0 | 0.00 | 0.01 | 0.00 | 96 | 1014.0 |
| 20260903100518 | 69 | 138 | 0.0 | 2.0 | 0.00 | 0.01 | 0.00 | 96 | 1014.0 |
| 20260903100046 | 69 | 0 | 0.0 | 2.0 | 0.00 | 0.01 | 0.00 | 96 | 1014.1 |
| 20260903095520 | 69 | 0 | 0.0 | 2.0 | 0.00 | 0.01 | 0.00 | 96 | 1014.1 |
| 20260903095017 | 69 | 0 | 0.0 | 2.0 | 0.00 | 0.01 | 0.00 | 96 | 1014.1 |
| 20260903094552 | 69 | 138 | 0.0 | 2.0 | 0.00 | 0.01 | 0.00 | 96 | 1014.1 |
| 20260903094021 | 69 | 0 | 0.0 | 2.0 | 0.00 | 0.01 | 0.00 | 96 | 1014.1 |
| 20260903093521 | 69 | 0 | 0.0 | 2.0 | 0.00 | 0.01 | 0.00 | 95 | 1014.2 |
| 20260903093042 | 69 | 138 | 1.0 | 2.0 | 0.00 | 0.01 | 0.00 | 95 | 1014.0 |
| 20260903092519 | 69 | 0 | 0.0 | 1.0 | 0.00 | 0.01 | 0.00 | 95 | 1014.1 |
| 20260903092015 | 69 | 0 | 0.0 | 2.0 | 0.00 | 0.01 | 0.00 | 95 | 1014.0 |
| 20260903091551 | 69 | 138 | 0.0 | 2.0 | 0.00 | 0.01 | 0.00 | 95 | 1013.9 |
| 20260903091019 | 69 | 0 | 0.0 | 2.0 | 0.00 | 0.01 | 0.00 | 95 | 1014.0 |
| 20260903090519 | 68 | 138 | 0.0 | 2.0 | 0.00 | 0.01 | 0.00 | 95 | 1013.9 |
| 20260903090039 | 68 | 0 | 0.0 | 0.0 | 0.00 | 0.01 | 0.00 | 95 | 1013.9 |
| 20260903085519 | 68 | 0 | 0.0 | 0.0 | 0.00 | 0.01 | 0.00 | 95 | 1013.9 |
| 20260903085018 | 68 | 0 | 0.0 | 0.0 | 0.00 | 0.01 | 0.00 | 95 | 1013.8 |
| 20260903084534 | 68 | 0 | 0.0 | 0.0 | 0.00 | 0.01 | 0.00 | 95 | 1013.9 |
| 20260903084018 | 68 | 0 | 0.0 | 0.0 | 0.00 | 0.01 | 0.00 | 95 | 1013.8 |
| 20260903083517 | 68 | 0 | 0.0 | 2.0 | 0.00 | 0.01 | 0.00 | 95 | 1013.8 |
| 20260903083039 | 68 | 0 | 0.0 | 2.0 | 0.00 | 0.01 | 0.00 | 95 | 1013.9 |
| 20260903082519 | 68 | 0 | 0.0 | 0.0 | 0.00 | 0.01 | 0.00 | 95 | 1013.9 |
| 20260903082021 | 68 | 0 | 0.0 | 0.0 | 0.00 | 0.01 | 0.00 | 95 | 1013.8 |
| 20260903081540 | 68 | 0 | 0.0 | 0.0 | 0.00 | 0.01 | 0.00 | 95 | 1013.8 |
| 20260903081020 | 69 | 0 | 0.0 | 0.0 | 0.00 | 0.01 | 0.00 | 95 | 1013.9 |
| 20260903080517 | 68 | 0 | 0.0 | 0.0 | 0.00 | 0.01 | 0.00 | 95 | 1013.9 |
| 20260903080043 | 68 | 0 | 0.0 | 0.0 | 0.00 | 0.01 | 0.00 | 95 | 1014.0 |
| 20260903075521 | 68 | 0 | 0.0 | 2.0 | 0.00 | 0.01 | 0.00 | 95 | 1013.9 |
| 20260903075018 | 69 | 0 | 0.0 | 2.0 | 0.00 | 0.01 | 0.00 | 95 | 1014.0 |
| 20260903074539 | 68 | 138 | 0.0 | 0.0 | 0.00 | 0.01 | 0.00 | 95 | 1014.0 |
| 20260903074016 | 69 | 0 | 0.0 | 0.0 | 0.00 | 0.01 | 0.00 | 95 | 1014.1 |
| 20260903073516 | 69 | 0 | 0.0 | 0.0 | 0.00 | 0.01 | 0.00 | 95 | 1014.0 |
| 20260903073040 | 69 | 0 | 0.0 | 0.0 | 0.00 | 0.01 | 0.00 | 95 | 1014.0 |
| 20260903072521 | 69 | 0 | 0.0 | 0.0 | 0.00 | 0.01 | 0.00 | 95 | 1014.0 |
| 20260903072019 | 69 | 0 | 0.0 | 0.0 | 0.00 | 0.01 | 0.00 | 95 | 1013.9 |
| 20260903071542 | 69 | 0 | 0.0 | 0.0 | 0.00 | 0.01 | 0.00 | 95 | 1014.0 |
| 20260903071018 | 69 | 0 | 0.0 | 0.0 | 0.00 | 0.01 | 0.00 | 95 | 1014.0 |
| 20260903070520 | 69 | 0 | 0.0 | 1.0 | 0.00 | 0.01 | 0.00 | 95 | 1014.1 |
| 20260903070039 | 69 | 0 | 0.0 | 1.0 | 0.00 | 0.01 | 0.00 | 95 | 1014.2 |
| 20260903065521 | 69 | 0 | 0.0 | 1.0 | 0.00 | 0.01 | 0.00 | 95 | 1014.2 |
| 20260903065018 | 69 | 0 | 0.0 | 0.0 | 0.00 | 0.01 | 0.00 | 95 | 1014.2 |
| 20260903064534 | 69 | 0 | 0.0 | 0.0 | 0.00 | 0.01 | 0.00 | 95 | 1014.2 |
| 20260903064020 | 69 | 0 | 0.0 | 0.0 | 0.00 | 0.01 | 0.00 | 95 | 1014.2 |
| 20260903063522 | 69 | 0 | 0.0 | 0.0 | 0.00 | 0.01 | 0.00 | 95 | 1014.2 |
| 20260903063048 | 69 | 0 | 0.0 | 0.0 | 0.00 | 0.01 | 0.00 | 95 | 1014.2 |
| 20260903062520 | 69 | 0 | 0.0 | 0.0 | 0.00 | 0.01 | 0.00 | 95 | 1014.3 |
| 20260903062021 | 69 | 0 | 0.0 | 0.0 | 0.00 | 0.01 | 0.00 | 95 | 1014.4 |
| 20260903061549 | 69 | 0 | 0.0 | 2.0 | 0.00 | 0.01 | 0.00 | 95 | 1014.4 |
| 20260903061021 | 69 | 0 | 0.0 | 2.0 | 0.00 | 0.01 | 0.00 | 95 | 1014.4 |
| 20260903060519 | 69 | 138 | 0.0 | 2.0 | 0.00 | 0.01 | 0.00 | 95 | 1014.3 |
| 20260903060057 | 70 | 0 | 0.0 | 2.0 | 0.00 | 0.01 | 0.00 | 95 | 1014.5 |
| 20260903055517 | 70 | 138 | 0.0 | 2.0 | 0.00 | 0.01 | 0.00 | 95 | 1014.5 |
| 20260903055020 | 70 | 138 | 0.0 | 2.0 | 0.00 | 0.01 | 0.00 | 95 | 1014.5 |
| 20260903054541 | 70 | 0 | 0.0 | 2.0 | 0.00 | 0.01 | 0.00 | 95 | 1014.4 |
| 20260903054019 | 70 | 0 | 0.0 | 2.0 | 0.00 | 0.01 | 0.00 | 95 | 1014.5 |
| 20260903053520 | 70 | 0 | 0.0 | 2.0 | 0.00 | 0.01 | 0.00 | 95 | 1014.4 |
| 20260903053043 | 70 | 0 | 0.0 | 2.0 | 0.00 | 0.01 | 0.00 | 95 | 1014.4 |
| 20260903052524 | 70 | 138 | 0.0 | 2.0 | 0.00 | 0.01 | 0.00 | 95 | 1014.4 |
| 20260903052021 | 70 | 138 | 0.0 | 2.0 | 0.00 | 0.01 | 0.00 | 95 | 1014.5 |
| 20260903051544 | 70 | 138 | 0.0 | 2.0 | 0.00 | 0.01 | 0.00 | 95 | 1014.4 |
| 20260903051021 | 70 | 0 | 0.0 | 2.0 | 0.00 | 0.01 | 0.00 | 95 | 1014.3 |
| 20260903050520 | 70 | 138 | 0.0 | 2.0 | 0.00 | 0.01 | 0.00 | 94 | 1014.2 |
| 20260903050046 | 70 | 138 | 0.0 | 2.0 | 0.00 | 0.01 | 0.00 | 94 | 1014.2 |
| 20260903045520 | 70 | 132 | 1.0 | 2.0 | 0.00 | 0.01 | 0.01 | 94 | 1014.2 |
| 20260903045023 | 70 | 0 | 1.0 | 2.0 | 0.00 | 0.01 | 0.01 | 94 | 1014.3 |
| 20260903044540 | 70 | 159 | 1.0 | 2.0 | 0.00 | 0.01 | 0.01 | 94 | 1014.2 |
| 20260903044024 | 70 | 159 | 1.0 | 2.0 | 0.00 | 0.01 | 0.01 | 94 | 1014.2 |
| 20260903043518 | 70 | 155 | 0.0 | 2.0 | 0.00 | 0.01 | 0.01 | 94 | 1014.2 |
| 20260903043044 | 70 | 0 | 0.0 | 2.0 | 0.00 | 0.01 | 0.01 | 94 | 1014.2 |
| 20260903042518 | 70 | 116 | 1.0 | 2.0 | 0.00 | 0.01 | 0.01 | 94 | 1014.2 |
| 20260903042020 | 70 | 117 | 0.0 | 2.0 | 0.00 | 0.01 | 0.01 | 94 | 1014.2 |
| 20260903041539 | 70 | 84 | 0.0 | 2.0 | 0.00 | 0.01 | 0.01 | 94 | 1014.1 |
| 20260903041022 | 70 | 84 | 0.0 | 4.0 | 0.00 | 0.01 | 0.01 | 93 | 1014.0 |
| 20260903040521 | 70 | 38 | 1.0 | 4.0 | 0.00 | 0.01 | 0.01 | 93 | 1013.9 |
| 20260903040045 | 70 | 58 | 1.0 | 3.0 | 0.00 | 0.01 | 0.01 | 93 | 1013.9 |
| 20260903035523 | 71 | 43 | 1.0 | 3.0 | 0.00 | 0.01 | 0.01 | 93 | 1013.9 |
| 20260903035021 | 71 | 35 | 1.0 | 3.0 | 0.00 | 0.01 | 0.01 | 92 | 1013.9 |
| 20260903034541 | 71 | 44 | 2.0 | 4.0 | 0.00 | 0.01 | 0.01 | 92 | 1013.8 |
| 20260903034020 | 71 | 62 | 2.0 | 4.0 | 0.00 | 0.01 | 0.01 | 92 | 1013.8 |
| 20260903033520 | 72 | 59 | 2.0 | 3.0 | 0.00 | 0.01 | 0.01 | 92 | 1013.8 |
| 20260903033037 | 72 | 54 | 2.0 | 2.0 | 0.00 | 0.01 | 0.01 | 92 | 1013.8 |
| 20260903032524 | 72 | 0 | 0.0 | 2.0 | 0.00 | 0.01 | 0.01 | 91 | 1013.8 |
| 20260903032019 | 72 | 104 | 0.0 | 2.0 | 0.00 | 0.01 | 0.01 | 91 | 1013.8 |
| 20260903031541 | 72 | 104 | 0.0 | 2.0 | 0.00 | 0.01 | 0.01 | 91 | 1013.7 |
| 20260903031023 | 73 | 104 | 0.0 | 2.0 | 0.00 | 0.01 | 0.01 | 90 | 1013.7 |
| 20260903030516 | 74 | 0 | 0.0 | 0.0 | 0.00 | 0.01 | 0.01 | 90 | 1013.7 |
| 20260903030048 | 74 | 0 | 0.0 | 0.0 | 0.00 | 0.01 | 0.01 | 91 | 1013.7 |
| 20260903025517 | 73 | 0 | 0.0 | 0.0 | 0.00 | 0.01 | 0.01 | 91 | 1013.7 |
| 20260903025018 | 74 | 0 | 0.0 | 0.0 | 0.00 | 0.01 | 0.01 | 90 | 1013.7 |
| 20260903024537 | 74 | 0 | 0.0 | 0.0 | 0.00 | 0.01 | 0.01 | 90 | 1013.7 |
| 20260903024020 | 74 | 0 | 0.0 | 0.0 | 0.00 | 0.01 | 0.01 | 90 | 1013.7 |
| 20260903023525 | 74 | 0 | 0.0 | 0.0 | 0.00 | 0.01 | 0.01 | 91 | 1013.8 |
| 20260903023038 | 74 | 0 | 0.0 | 0.0 | 0.00 | 0.01 | 0.01 | 91 | 1013.6 |
| 20260903022517 | 74 | 0 | 0.0 | 0.0 | 0.00 | 0.01 | 0.01 | 90 | 1013.7 |
| 20260903022023 | 74 | 0 | 0.0 | 0.0 | 0.00 | 0.01 | 0.01 | 90 | 1013.8 |
| 20260903021546 | 74 | 0 | 0.0 | 0.0 | 0.00 | 0.01 | 0.01 | 89 | 1013.8 |
| 20260903021016 | 74 | 0 | 0.0 | 0.0 | 0.00 | 0.01 | 0.01 | 88 | 1013.8 |
| 20260903020518 | 75 | 0 | 0.0 | 0.0 | 0.00 | 0.01 | 0.01 | 88 | 1013.7 |
| 20260903020040 | 75 | 0 | 0.0 | 0.0 | 0.00 | 0.01 | 0.01 | 88 | 1013.7 |
| 20260903015519 | 75 | 0 | 0.0 | 0.0 | 0.00 | 0.01 | 0.01 | 88 | 1013.7 |
| 20260903015019 | 75 | 0 | 0.0 | 0.0 | 0.00 | 0.01 | 0.01 | 87 | 1013.6 |
| 20260903014550 | 75 | 0 | 0.0 | 2.0 | 0.00 | 0.01 | 0.01 | 87 | 1013.6 |
| 20260903014024 | 76 | 0 | 0.0 | 2.0 | 0.00 | 0.01 | 0.01 | 87 | 1013.6 |
| 20260903013522 | 76 | 0 | 0.0 | 2.0 | 0.00 | 0.01 | 0.01 | 86 | 1013.6 |
| 20260903013038 | 76 | 0 | 0.0 | 0.0 | 0.00 | 0.01 | 0.01 | 85 | 1013.5 |
| 20260903012519 | 77 | 0 | 0.0 | 0.0 | 0.00 | 0.01 | 0.01 | 85 | 1013.5 |
| 20260903012020 | 77 | 0 | 0.0 | 2.0 | 0.00 | 0.01 | 0.01 | 84 | 1013.4 |
| 20260903011546 | 77 | 0 | 0.0 | 2.0 | 0.00 | 0.01 | 0.01 | 84 | 1013.3 |
| 20260903011021 | 77 | 0 | 0.0 | 2.0 | 0.00 | 0.01 | 0.01 | 82 | 1013.2 |
| 20260903010522 | 78 | 83 | 0.0 | 2.0 | 0.00 | 0.01 | 0.01 | 81 | 1013.2 |
| 20260903010040 | 78 | 0 | 0.0 | 2.0 | 0.00 | 0.01 | 0.01 | 80 | 1013.2 |
| 20260903005516 | 79 | 0 | 0.0 | 2.0 | 0.00 | 0.01 | 0.01 | 80 | 1013.0 |
| 20260903005019 | 79 | 0 | 0.0 | 2.0 | 0.00 | 0.01 | 0.01 | 80 | 1013.0 |
| 20260903004539 | 79 | 0 | 0.0 | 0.0 | 0.00 | 0.01 | 0.01 | 79 | 1012.9 |
| 20260903004020 | 79 | 0 | 0.0 | 0.0 | 0.00 | 0.01 | 0.01 | 78 | 1012.9 |
| 20260903003534 | 79 | 0 | 0.0 | 0.0 | 0.00 | 0.01 | 0.01 | 78 | 1012.9 |
| 20260903003039 | 80 | 0 | 0.0 | 0.0 | 0.00 | 0.01 | 0.01 | 77 | 1012.9 |
| 20260903002519 | 81 | 0 | 0.0 | 0.0 | 0.00 | 0.01 | 0.01 | 75 | 1012.9 |
| 20260903002020 | 81 | 0 | 0.0 | 0.0 | 0.00 | 0.01 | 0.01 | 75 | 1012.8 |
| 20260903001537 | 81 | 0 | 0.0 | 2.0 | 0.00 | 0.01 | 0.01 | 75 | 1013.0 |